W2DEN Weather Reports


Display with metric or nautical units.
time (UTC)temp
F
wind
direction
speed
MPH
gust
MPH
rain 1hr
in
rain 24hr
in
rain mn
in
humidity
%
barometer
mb
20260507230317 80 0.0 1.0 0.00 0.30 0.30 75 1009.7
20260507225317 80 0.0 1.0 0.00 0.30 0.30 74 1009.8
20260507224317 80 23 1.0 2.0 0.00 0.30 0.30 74 1009.9
20260507223317 81 68 2.0 3.0 0.00 0.30 0.30 73 1009.6
20260507222337 81 23 1.0 2.0 0.00 0.30 0.30 73 1009.6
20260507221317 81 0 2.0 4.0 0.00 0.30 0.30 71 1009.5
20260507220317 81 0 2.0 4.0 0.00 0.30 0.30 70 1009.6
20260507215337 81 0.0 2.0 0.00 0.30 0.30 72 1009.4
20260507214317 81 203 2.0 4.0 0.00 0.30 0.30 70 1009.6
20260507213316 83 158 1.0 2.0 0.00 0.30 0.30 68 1009.5
20260507212336 82 0.0 0.0 0.00 0.30 0.30 70 1009.6
20260507211317 82 0 2.0 3.0 0.00 0.30 0.30 67 1009.7
20260507210338 82 158 1.0 2.0 0.00 0.30 0.30 69 1009.6
20260507205317 82 0.0 2.0 0.00 0.30 0.30 69 1009.5
20260507204317 83 23 1.0 2.0 0.00 0.30 0.30 69 1009.7
20260507203317 82 23 3.0 9.0 0.00 0.30 0.30 68 1009.8
20260507202316 82 203 2.0 7.0 0.00 0.30 0.30 68 1009.8
20260507201317 81 23 1.0 2.0 0.00 0.30 0.30 69 1009.9
20260507200317 82 68 1.0 2.0 0.00 0.30 0.30 70 1010.1
20260507195318 81 0.0 1.0 0.00 0.30 0.30 69 1010.3
20260507194318 80 0.0 0.0 0.00 0.30 0.30 71 1010.4
20260507193317 80 0.0 1.0 0.00 0.30 0.30 70 1010.3
20260507192317 80 23 1.0 2.0 0.00 0.30 0.30 69 1010.4
20260507191316 81 158 2.0 3.0 0.00 0.30 0.30 67 1010.7
20260507190317 81 0 4.0 11.0 0.00 0.30 0.30 65 1010.8
20260507185317 81 45 5.0 14.0 0.00 0.30 0.30 67 1010.6
20260507184317 81 68 2.0 6.0 0.00 0.30 0.30 67 1010.5
20260507183316 81 338 1.0 1.0 0.00 0.30 0.30 69 1010.6
20260507182357 81 23 2.0 3.0 0.00 0.30 0.30 69 1010.1
20260507181336 80 45 2.0 3.0 0.00 0.30 0.30 70 1010.3
20260507180316 80 23 1.0 2.0 0.00 0.30 0.30 72 1010.3
20260507175316 80 45 2.0 4.0 0.00 0.30 0.30 71 1010.4
20260507174336 80 0.0 1.0 0.00 0.30 0.30 72 1010.7
20260507173419 79 0 2.0 2.0 0.00 0.30 0.30 73 1010.4
20260507173216 79 338 1.0 1.0 0.00 0.30 0.30 73 1010.5
20260507172217 79 180 3.0 6.0 0.00 0.30 0.30 73 1010.4
20260507171216 78 68 1.0 2.0 0.00 0.30 0.30 72 1010.4
20260507170216 78 158 1.0 2.0 0.00 0.30 0.30 75 1010.6
20260507165236 77 158 1.0 2.0 0.00 0.30 0.30 74 1010.7
20260507164236 77 0 1.0 3.0 0.00 0.30 0.30 75 1011.2
20260507163216 76 45 1.0 2.0 0.00 0.30 0.30 75 1011.2
20260507162218 75 45 1.0 2.0 0.00 0.30 0.30 77 1011.4
20260507161236 75 0.0 1.0 0.00 0.30 0.30 79 1011.7
20260507160237 74 0.0 1.0 0.00 0.30 0.30 82 1012.0
20260507155216 73 0.0 0.0 0.00 0.30 0.30 83 1012.2
20260507154217 72 0.0 0.0 0.00 0.30 0.30 84 1011.8
20260507153256 72 0.0 1.0 0.00 0.30 0.30 85 1013.3
20260507152216 72 0.0 1.0 0.00 0.30 0.30 84 1012.4
20260507151216 72 0.0 1.0 0.00 0.30 0.30 85 1012.6
20260507150216 72 0.0 0.0 0.00 0.30 0.30 84 1012.5
20260507145216 72 0.0 0.0 0.00 0.30 0.30 86 1012.1
20260507144216 72 0.0 0.0 0.00 0.30 0.30 87 1012.3
20260507143216 71 0.0 0.0 0.00 0.30 0.30 91 1012.1
20260507142217 70 0.0 1.0 0.00 0.30 0.30 92 1011.6
20260507141216 69 0.0 1.0 0.00 0.30 0.30 93 1011.8
20260507140216 68 0.0 0.0 0.00 0.30 0.30 93 1012.3
20260507135216 67 0.0 0.0 0.00 0.30 0.30 94 1012.2
20260507134216 66 0.0 0.0 0.01 0.30 0.30 94 1012.3
20260507133216 66 0.0 1.0 0.01 0.30 0.30 94 1012.4
20260507132216 65 0.0 0.0 0.01 0.30 0.30 94 1012.8
20260507131216 65 0.0 0.0 0.01 0.30 0.30 94 1012.3
20260507130216 65 0.0 0.0 0.01 0.30 0.30 94 1012.5
20260507125216 65 0.0 1.0 0.01 0.30 0.30 93 1013.0
20260507124216 65 158 1.0 1.0 0.00 0.29 0.29 93 1012.9
20260507123216 64 0.0 0.0 0.00 0.29 0.29 93 1012.5
20260507122216 64 0.0 0.0 0.01 0.29 0.29 93 1011.8
20260507121217 64 0.0 0.0 0.03 0.29 0.29 93 1011.5
20260507120216 64 0.0 0.0 0.05 0.29 0.29 93 1011.5
20260507115216 64 0.0 0.0 0.07 0.29 0.29 93 1010.9
20260507114216 64 0.0 0.0 0.10 0.29 0.29 92 1010.6
20260507113216 64 0.0 0.0 0.13 0.29 0.29 92 1011.0
20260507112216 64 158 1.0 2.0 0.14 0.28 0.28 91 1011.6
20260507111236 65 0.0 2.0 0.12 0.26 0.26 92 1013.2
20260507110217 66 0.0 0.0 0.15 0.24 0.24 92 1013.7
20260507105217 67 0.0 1.0 0.16 0.22 0.22 92 1013.8
20260507104217 67 23 1.0 2.0 0.16 0.19 0.19 92 1014.3
20260507103257 68 0.0 0.0 0.15 0.16 0.16 93 1014.2
20260507102217 68 0.0 0.0 0.14 0.14 0.14 93 1013.8
20260507101216 69 0.0 0.0 0.14 0.14 0.14 92 1013.9
20260507100238 69 0.0 0.0 0.09 0.09 0.09 91 1014.7
20260507095217 69 0.0 1.0 0.06 0.06 0.06 90 1015.1
20260507094216 69 0.0 0.0 0.03 0.03 0.03 88 1015.1
20260507093216 70 0.0 0.0 0.01 0.01 0.01 86 1015.3
20260507092216 70 0.0 0.0 0.00 0.00 0.00 85 1015.5
20260507091217 71 0.0 0.0 0.00 0.00 0.00 83 1014.6
20260507090217 71 0.0 0.0 0.00 0.00 0.00 81 1013.9
20260507085216 71 0.0 0.0 0.00 0.00 0.00 81 1013.7
20260507084216 71 0.0 0.0 0.00 0.00 0.00 81 1013.2
20260507083216 72 0.0 0.0 0.00 0.00 0.00 81 1012.7
20260507082237 72 0.0 0.0 0.00 0.00 0.00 80 1012.9
20260507081216 72 0.0 1.0 0.00 0.00 0.00 80 1012.3
20260507080216 71 158 2.0 7.0 0.00 0.00 0.00 82 1012.4
20260507075216 71 23 1.0 3.0 0.00 0.00 0.00 84 1012.6
20260507074216 70 0.0 0.0 0.00 0.00 0.00 85 1012.3
20260507073216 70 0.0 0.0 0.00 0.00 0.00 85 1012.1
20260507072257 70 0.0 0.0 0.00 0.00 0.00 86 1011.6
20260507071216 69 0.0 0.0 0.00 0.00 0.00 86 1012.2
20260507070218 69 0.0 0.0 0.00 0.00 0.00 87 1012.4
20260507065216 69 0.0 0.0 0.00 0.00 0.00 86 1012.3
20260507064216 69 0.0 0.0 0.00 0.00 0.00 86 1012.4
20260507063216 69 0.0 0.0 0.00 0.00 0.00 85 1012.5
20260507062216 70 0.0 0.0 0.00 0.00 0.00 84 1013.1
20260507061216 70 0.0 0.0 0.00 0.00 0.00 84 1013.2
20260507060216 70 0.0 0.0 0.00 0.00 0.00 84 1013.2
20260507055216 70 0.0 0.0 0.00 0.00 0.00 82 1013.5
20260507054216 70 0.0 0.0 0.00 0.00 0.00 82 1013.6
20260507053216 70 0.0 0.0 0.00 0.00 0.00 81 1013.6
20260507052217 71 0.0 0.0 0.00 0.00 0.00 81 1013.5
20260507051216 71 0.0 0.0 0.00 0.00 0.00 81 1013.7
20260507050216 71 0.0 0.0 0.00 0.00 0.00 79 1013.6
20260507045236 71 0.0 0.0 0.00 0.00 0.00 80 1013.7
20260507044216 72 0.0 0.0 0.00 0.00 0.00 79 1013.9
20260507043216 72 0.0 0.0 0.00 0.00 0.00 76 1013.8
20260507042236 72 0.0 0.0 0.00 0.00 0.00 77 1013.8
20260507041216 72 0.0 0.0 0.00 0.00 0.00 77 1013.6
20260507040216 72 0.0 0.0 0.00 0.00 0.00 77 1013.8
20260507035237 73 0.0 0.0 0.00 0.00 0.00 75 1013.8
20260507034257 73 0.0 0.0 0.00 0.00 0.00 75 1013.8
20260507033217 73 0.0 2.0 0.00 0.00 0.00 75 1013.8
20260507032217 73 0.0 0.0 0.00 0.00 0.00 75 1013.8
20260507031237 74 0.0 1.0 0.00 0.00 0.00 74 1013.9
20260507030216 74 0.0 1.0 0.00 0.00 0.00 74 1013.7
20260507025216 74 0.0 0.0 0.00 0.00 0.00 73 1013.7
20260507024217 74 0.0 0.0 0.00 0.00 0.00 73 1013.6
20260507023216 75 0.0 0.0 0.00 0.00 0.00 72 1013.3
20260507022216 75 0.0 0.0 0.00 0.00 0.00 72 1013.0
20260507021217 75 158 1.0 3.0 0.00 0.00 0.00 73 1013.2
20260507020217 75 0.0 1.0 0.00 0.00 0.00 72 1013.1
20260507015216 75 158 1.0 2.0 0.00 0.00 0.00 72 1013.1
20260507014217 76 0.0 1.0 0.00 0.00 0.00 74 1013.2
20260507013218 76 0.0 0.0 0.00 0.00 0.00 73 1013.3
20260507012216 76 0.0 1.0 0.00 0.00 0.00 74 1013.4
20260507011216 76 0.0 0.0 0.00 0.00 0.00 75 1013.3
20260507010216 76 0.0 0.0 0.00 0.00 0.00 75 1013.5
20260507005216 76 0.0 0.0 0.00 0.00 0.00 75 1013.6
20260507004217 76 0.0 0.0 0.00 0.00 0.00 74 1013.6
20260507003216 76 0.0 0.0 0.00 0.00 0.00 73 1013.7
20260507002216 77 0.0 0.0 0.00 0.00 0.00 72 1013.7
20260507001217 78 0.0 0.0 0.00 0.00 0.00 71 1013.5
20260507000216 78 0.0 0.0 0.00 0.00 0.00 69 1013.6
20260506235216 79 0.0 0.0 0.00 0.00 0.00 69 1013.5
20260506234216 80 0.0 1.0 0.00 0.00 0.00 69 1013.4
20260506233236 80 0.0 0.0 0.00 0.00 0.00 68 1013.3
20260506232216 81 0.0 0.0 0.00 0.00 0.00 67 1013.0
20260506231217 81 0.0 1.0 0.00 0.00 0.00 65 1013.1